| time (UTC) | temp C | wind direction | speed KPH | gust KPH | rain 1hr cm | rain 24hr cm | rain mn cm | humidity % | barometer mb |
| 20260507224638 | 16 | 175 | 0.0 | 3.2 | 0.00 | 0.10 | 0.10 | 55 | 1011.7 |
| 20260507223736 | 17 | 211 | 0.0 | 1.6 | 0.00 | 0.10 | 0.10 | 52 | 1011.6 |
| 20260507222738 | 18 | 210 | 1.6 | 4.8 | 0.00 | 0.10 | 0.10 | 51 | 1011.5 |
| 20260507221837 | 18 | 270 | 0.0 | 0.0 | 0.00 | 0.10 | 0.10 | 49 | 1011.4 |
| 20260507220838 | 18 | 163 | 0.0 | 3.2 | 0.00 | 0.10 | 0.10 | 48 | 1011.3 |
| 20260507215936 | 18 | 128 | 0.0 | 3.2 | 0.00 | 0.10 | 0.10 | 47 | 1011.4 |
| 20260507213939 | 19 | 170 | 1.6 | 4.8 | 0.00 | 0.10 | 0.10 | 46 | 1011.4 |
| 20260507213838 | 19 | 155 | 0.0 | 4.8 | 0.00 | 0.10 | 0.10 | 46 | 1011.4 |
| 20260507212936 | 20 | 134 | 0.0 | 1.6 | 0.00 | 0.10 | 0.10 | 46 | 1011.5 |
| 20260507211938 | 20 | 117 | 0.0 | 1.6 | 0.00 | 0.10 | 0.10 | 47 | 1011.5 |
| 20260507210939 | 20 | 247 | 0.0 | 0.0 | 0.00 | 0.10 | 0.10 | 48 | 1011.5 |
| 20260507205937 | 20 | 205 | 0.0 | 1.6 | 0.00 | 0.10 | 0.10 | 48 | 1011.4 |
| 20260507204939 | 19 | 187 | 0.0 | 1.6 | 0.00 | 0.10 | 0.10 | 49 | 1011.5 |
| 20260507204038 | 20 | 224 | 3.2 | 8.0 | 0.00 | 0.10 | 0.10 | 48 | 1011.5 |
| 20260507202037 | 20 | 166 | 0.0 | 3.2 | 0.00 | 0.10 | 0.10 | 47 | 1011.4 |
| 20260507201037 | 20 | 172 | 0.0 | 1.6 | 0.00 | 0.10 | 0.10 | 47 | 1011.4 |
| 20260507200136 | 20 | 21 | 0.0 | 0.0 | 0.00 | 0.10 | 0.10 | 48 | 1011.5 |
| 20260507195236 | 19 | 198 | 0.0 | 1.6 | 0.00 | 0.10 | 0.10 | 50 | 1011.4 |
| 20260507195138 | 19 | 139 | 0.0 | 1.6 | 0.00 | 0.10 | 0.10 | 50 | 1011.5 |
| 20260507195038 | 19 | 169 | 0.0 | 0.0 | 0.00 | 0.10 | 0.10 | 50 | 1011.5 |
| 20260507194040 | 18 | 173 | 1.6 | 4.8 | 0.00 | 0.10 | 0.10 | 51 | 1011.5 |
| 20260507193038 | 18 | 129 | 0.0 | 1.6 | 0.00 | 0.10 | 0.10 | 52 | 1011.8 |
| 20260507192039 | 18 | 196 | 0.0 | 1.6 | 0.00 | 0.10 | 0.10 | 52 | 1012.0 |
| 20260507191038 | 18 | 197 | 1.6 | 6.4 | 0.00 | 0.10 | 0.10 | 51 | 1012.1 |
| 20260507190137 | 18 | 43 | 0.0 | 3.2 | 0.00 | 0.10 | 0.10 | 49 | 1012.3 |
| 20260507185138 | 18 | 204 | 0.0 | 3.2 | 0.00 | 0.10 | 0.10 | 50 | 1012.4 |
| 20260507184138 | 17 | 356 | 0.0 | 0.0 | 0.00 | 0.10 | 0.10 | 52 | 1012.3 |
| 20260507183138 | 17 | 135 | 0.0 | 0.0 | 0.00 | 0.10 | 0.10 | 52 | 1012.6 |
| 20260507182236 | 17 | 135 | 0.0 | 1.6 | 0.00 | 0.10 | 0.10 | 52 | 1012.8 |
| 20260507180337 | 16 | 207 | 0.0 | 0.0 | 0.00 | 0.10 | 0.10 | 49 | 1013.0 |
| 20260507175338 | 16 | 202 | 0.0 | 0.0 | 0.00 | 0.10 | 0.10 | 50 | 1013.1 |
| 20260507174338 | 16 | 212 | 1.6 | 3.2 | 0.00 | 0.10 | 0.10 | 53 | 1013.2 |
| 20260507173336 | 15 | 360 | 0.0 | 3.2 | 0.00 | 0.13 | 0.10 | 53 | 1013.4 |
| 20260507172339 | 15 | 22 | 0.0 | 0.0 | 0.00 | 0.13 | 0.10 | 56 | 1013.9 |
| 20260507171338 | 14 | 90 | 0.0 | 0.0 | 0.00 | 0.13 | 0.10 | 55 | 1014.0 |
| 20260507170338 | 15 | 360 | 0.0 | 0.0 | 0.00 | 0.13 | 0.10 | 54 | 1014.0 |
| 20260507165436 | 15 | 225 | 0.0 | 0.0 | 0.00 | 0.13 | 0.10 | 52 | 1014.6 |
| 20260507163438 | 15 | 320 | 0.0 | 1.6 | 0.00 | 0.13 | 0.10 | 54 | 1014.4 |
| 20260507162440 | 15 | 337 | 0.0 | 1.6 | 0.00 | 0.13 | 0.10 | 57 | 1014.5 |
| 20260507162339 | 15 | 159 | 0.0 | 0.0 | 0.00 | 0.13 | 0.10 | 57 | 1014.4 |
| 20260507161338 | 14 | 315 | 0.0 | 0.0 | 0.00 | 0.13 | 0.10 | 59 | 1014.6 |
| 20260507160337 | 14 | 22 | 0.0 | 0.0 | 0.00 | 0.13 | 0.10 | 60 | 1014.7 |
| 20260507154438 | 13 | 360 | 0.0 | 0.0 | 0.00 | 0.13 | 0.10 | 61 | 1014.8 |
| 20260507153437 | 13 | 360 | 0.0 | 0.0 | 0.00 | 0.13 | 0.10 | 63 | 1015.0 |
| 20260507152536 | 13 | 360 | 0.0 | 0.0 | 0.00 | 0.13 | 0.10 | 64 | 1015.1 |
| 20260507151538 | 12 | 22 | 0.0 | 0.0 | 0.00 | 0.13 | 0.10 | 65 | 1015.0 |
| 20260507150539 | 12 | 78 | 0.0 | 3.2 | 0.00 | 0.18 | 0.10 | 69 | 1015.1 |
| 20260507144539 | 12 | 135 | 0.0 | 0.0 | 0.00 | 0.20 | 0.10 | 72 | 1015.3 |
| 20260507143540 | 11 | 180 | 0.0 | 0.0 | 0.00 | 0.23 | 0.10 | 70 | 1015.4 |
| 20260507141539 | 11 | 77 | 1.6 | 8.0 | 0.00 | 0.28 | 0.10 | 71 | 1015.5 |
| 20260507140539 | 11 | 292 | 0.0 | 0.0 | 0.00 | 0.30 | 0.10 | 72 | 1015.5 |
| 20260507135637 | 11 | 292 | 0.0 | 0.0 | 0.00 | 0.36 | 0.10 | 71 | 1015.6 |
| 20260507134638 | 11 | 292 | 0.0 | 0.0 | 0.00 | 0.41 | 0.10 | 72 | 1015.7 |
| 20260507133736 | 11 | 292 | 0.0 | 0.0 | 0.00 | 0.46 | 0.10 | 74 | 1015.7 |
| 20260507132738 | 11 | 292 | 0.0 | 0.0 | 0.00 | 0.51 | 0.10 | 77 | 1015.8 |
| 20260507130738 | 11 | 22 | 0.0 | 0.0 | 0.00 | 0.61 | 0.10 | 79 | 1015.6 |
| 20260507125739 | 11 | 22 | 0.0 | 0.0 | 0.00 | 0.61 | 0.10 | 79 | 1015.5 |
| 20260507124739 | 11 | 22 | 0.0 | 0.0 | 0.00 | 0.64 | 0.10 | 79 | 1015.5 |
| 20260507122742 | 11 | 67 | 0.0 | 0.0 | 0.00 | 0.64 | 0.10 | 86 | 1015.6 |
| 20260507121740 | 12 | 292 | 0.0 | 0.0 | 0.00 | 0.66 | 0.10 | 91 | 1015.4 |
| 20260507121637 | 12 | 292 | 0.0 | 0.0 | 0.00 | 0.66 | 0.10 | 91 | 1015.4 |
| 20260507120638 | 12 | 270 | 0.0 | 0.0 | 0.00 | 0.69 | 0.10 | 92 | 1015.3 |
| 20260507115638 | 12 | 22 | 0.0 | 0.0 | 0.00 | 0.69 | 0.10 | 94 | 1015.3 |
| 20260507114638 | 12 | 112 | 0.0 | 0.0 | 0.00 | 0.69 | 0.10 | 94 | 1015.1 |
| 20260507113639 | 11 | 112 | 0.0 | 0.0 | 0.00 | 0.69 | 0.10 | 94 | 1015.0 |
| 20260507112637 | 11 | 22 | 0.0 | 1.6 | 0.00 | 0.69 | 0.10 | 94 | 1015.0 |
| 20260507111639 | 11 | 360 | 0.0 | 0.0 | 0.00 | 0.69 | 0.10 | 94 | 1015.1 |
| 20260507110639 | 11 | 360 | 0.0 | 0.0 | 0.00 | 0.69 | 0.10 | 94 | 1014.8 |
| 20260507110537 | 11 | 360 | 0.0 | 0.0 | 0.00 | 0.69 | 0.10 | 94 | 1014.7 |
| 20260507105540 | 11 | 360 | 0.0 | 0.0 | 0.00 | 0.69 | 0.10 | 94 | 1015.0 |
| 20260507104538 | 11 | 360 | 0.0 | 0.0 | 0.00 | 0.69 | 0.10 | 94 | 1014.7 |
| 20260507094638 | 11 | 360 | 0.0 | 0.0 | 0.00 | 0.69 | 0.10 | 94 | 1014.4 |
| 20260507093737 | 11 | 360 | 0.0 | 0.0 | 0.00 | 0.69 | 0.10 | 94 | 1014.4 |
| 20260507092736 | 11 | 360 | 0.0 | 0.0 | 0.00 | 0.69 | 0.10 | 94 | 1014.3 |
| 20260507091738 | 11 | 360 | 0.0 | 0.0 | 0.00 | 0.69 | 0.10 | 94 | 1014.1 |
| 20260507085839 | 12 | 360 | 0.0 | 0.0 | 0.00 | 0.69 | 0.10 | 94 | 1014.4 |
| 20260507084838 | 12 | 360 | 0.0 | 0.0 | 0.03 | 0.69 | 0.10 | 94 | 1014.2 |
| 20260507083937 | 12 | 360 | 0.0 | 0.0 | 0.03 | 0.69 | 0.10 | 94 | 1013.9 |
| 20260507082936 | 12 | 360 | 0.0 | 0.0 | 0.03 | 0.69 | 0.10 | 94 | 1014.2 |
| 20260507081936 | 12 | 360 | 0.0 | 0.0 | 0.03 | 0.69 | 0.10 | 94 | 1014.0 |
| 20260507080936 | 12 | 360 | 0.0 | 0.0 | 0.03 | 0.69 | 0.10 | 94 | 1013.8 |
| 20260507075936 | 12 | 360 | 0.0 | 0.0 | 0.03 | 0.69 | 0.10 | 94 | 1013.6 |
| 20260507074937 | 12 | 360 | 0.0 | 0.0 | 0.00 | 0.66 | 0.08 | 94 | 1013.5 |
| 20260507072937 | 12 | 292 | 0.0 | 0.0 | 0.00 | 0.66 | 0.08 | 93 | 1013.2 |
| 20260507071036 | 12 | 292 | 0.0 | 0.0 | 0.00 | 0.66 | 0.08 | 94 | 1013.2 |
| 20260507070037 | 12 | 292 | 0.0 | 0.0 | 0.00 | 0.66 | 0.08 | 94 | 1013.3 |
| 20260507065055 | 12 | 292 | 0.0 | 0.0 | 0.00 | 0.66 | 0.08 | 94 | 1013.1 |
| 20260507063038 | 12 | 270 | 0.0 | 0.0 | 0.03 | 0.66 | 0.08 | 93 | 1013.5 |
| 20260507062137 | 12 | 348 | 0.0 | 0.0 | 0.03 | 0.66 | 0.08 | 93 | 1013.4 |
| 20260507061139 | 12 | 22 | 0.0 | 0.0 | 0.03 | 0.66 | 0.08 | 92 | 1013.3 |
| 20260507060139 | 12 | 22 | 0.0 | 0.0 | 0.03 | 0.66 | 0.08 | 92 | 1013.1 |
| 20260507055139 | 13 | 21 | 0.0 | 1.6 | 0.03 | 0.66 | 0.08 | 91 | 1013.3 |
| 20260507054139 | 13 | 339 | 0.0 | 1.6 | 0.03 | 0.64 | 0.05 | 90 | 1013.4 |
| 20260507053236 | 13 | 315 | 0.0 | 0.0 | 0.03 | 0.64 | 0.05 | 90 | 1013.5 |
| 20260507052239 | 13 | 337 | 0.0 | 0.0 | 0.05 | 0.64 | 0.05 | 89 | 1013.4 |
| 20260507052137 | 13 | 337 | 0.0 | 0.0 | 0.05 | 0.64 | 0.05 | 89 | 1013.3 |
| 20260507051138 | 13 | 315 | 0.0 | 0.0 | 0.05 | 0.64 | 0.05 | 89 | 1012.9 |
| 20260507050236 | 13 | 315 | 0.0 | 0.0 | 0.05 | 0.64 | 0.05 | 88 | 1013.6 |
| 20260507045239 | 14 | 315 | 0.0 | 0.0 | 0.05 | 0.64 | 0.05 | 86 | 1013.5 |
| 20260507044237 | 15 | 292 | 0.0 | 0.0 | 0.05 | 0.64 | 0.03 | 85 | 1013.8 |
| 20260507043236 | 15 | 292 | 0.0 | 0.0 | 0.03 | 0.61 | 0.00 | 83 | 1013.4 |
| 20260507042238 | 16 | 315 | 0.0 | 0.0 | 0.00 | 0.58 | 0.00 | 80 | 1013.7 |
| 20260507041335 | 16 | 315 | 0.0 | 0.0 | 0.00 | 0.58 | 0.00 | 79 | 1013.4 |
| 20260507040335 | 16 | 315 | 0.0 | 1.6 | 0.00 | 0.58 | 0.00 | 80 | 1013.4 |
| 20260507035340 | 16 | 292 | 0.0 | 1.6 | 0.00 | 0.58 | 0.58 | 79 | 1013.0 |
| 20260507034340 | 16 | 315 | 0.0 | 0.0 | 0.00 | 0.58 | 0.58 | 77 | 1013.0 |
| 20260507033342 | 16 | 1 | 0.0 | 6.4 | 0.00 | 0.58 | 0.58 | 77 | 1013.2 |
| 20260507032342 | 17 | 315 | 0.0 | 1.6 | 0.00 | 0.58 | 0.58 | 77 | 1013.0 |
| 20260507031441 | 17 | 60 | 0.0 | 6.4 | 0.00 | 0.58 | 0.58 | 77 | 1013.0 |
| 20260507030442 | 17 | 270 | 0.0 | 0.0 | 0.00 | 0.58 | 0.58 | 78 | 1012.4 |
| 20260507024442 | 17 | 292 | 0.0 | 3.2 | 0.00 | 0.58 | 0.58 | 81 | 1012.7 |
| 20260507023442 | 17 | 295 | 0.0 | 1.6 | 0.00 | 0.58 | 0.58 | 83 | 1012.6 |
| 20260507022459 | 18 | 292 | 0.0 | 1.6 | 0.00 | 0.58 | 0.58 | 85 | 1012.1 |
| 20260507022341 | 18 | 292 | 0.0 | 3.2 | 0.00 | 0.58 | 0.58 | 85 | 1012.1 |
| 20260507021344 | 18 | 292 | 0.0 | 1.6 | 0.00 | 0.58 | 0.58 | 86 | 1012.1 |
| 20260507020342 | 18 | 292 | 0.0 | 0.0 | 0.00 | 0.58 | 0.58 | 87 | 1012.0 |
| 20260507015343 | 18 | 292 | 0.0 | 0.0 | 0.00 | 0.58 | 0.58 | 87 | 1011.9 |
| 20260507014341 | 18 | 292 | 0.0 | 0.0 | 0.00 | 0.58 | 0.58 | 86 | 1011.8 |
| 20260507013343 | 18 | 292 | 0.0 | 0.0 | 0.00 | 0.58 | 0.58 | 86 | 1012.0 |
| 20260507012343 | 18 | 292 | 0.0 | 0.0 | 0.00 | 0.58 | 0.58 | 85 | 1012.1 |
| 20260507010341 | 18 | 292 | 0.0 | 0.0 | 0.00 | 0.58 | 0.58 | 85 | 1012.1 |
| 20260507005342 | 18 | 292 | 0.0 | 0.0 | 0.00 | 0.58 | 0.58 | 84 | 1012.1 |
| 20260507001442 | 19 | 292 | 0.0 | 0.0 | 0.00 | 0.58 | 0.58 | 82 | 1011.7 |
| 20260507000541 | 19 | 292 | 0.0 | 0.0 | 0.00 | 0.58 | 0.58 | 82 | 1011.5 |
| 20260506234542 | 20 | 292 | 0.0 | 0.0 | 0.00 | 0.58 | 0.58 | 81 | 1011.3 |
| 20260506233542 | 20 | 292 | 0.0 | 1.6 | 0.00 | 0.58 | 0.58 | 81 | 1011.1 |
| 20260506232542 | 20 | 292 | 0.0 | 0.0 | 0.00 | 0.58 | 0.58 | 81 | 1011.1 |
| 20260506231639 | 20 | 202 | 0.0 | 0.0 | 0.00 | 0.58 | 0.58 | 80 | 1011.1 |
| 20260506230642 | 20 | 292 | 0.0 | 0.0 | 0.00 | 0.58 | 0.58 | 80 | 1011.0 |
| 20260506225740 | 20 | 22 | 0.0 | 0.0 | 0.00 | 0.58 | 0.58 | 80 | 1011.0 |